Location: Newark
(34.1333°N, 7.9667°W)
Time: 13:48:06
(UTC+00:00)

S-56A Canister/Altair - Pass Details

Date: 07 December 2021
Orbit: 634 x 2499 km, 38.9° (Epoch: 25 January)

Event Time Altitude Azimuth Distance (km) Brightness Sun altitude
Rises 22:51:00 0° 242° (WSW) 5,934 12.3 -66.7°
Reaches altitude 10° 22:55:12 10° 241° (WSW) 4,746 11.6 -67.5°
Enters shadow 22:55:42 11° 241° (WSW) 4,598 11.5 -67.6°
